| time (UTC) | temp F | wind direction | speed MPH | gust MPH | rain 1hr in | rain 24hr in | rain mn in | humidity % | barometer mb |
| 20260508094551 | 60 | 0 | 0.0 | 0.0 | 0.00 | 1.34 | 0.00 | 96 | 1015.3 |
| 20260508093045 | 60 | 0 | 0.0 | 0.0 | 0.00 | 1.34 | 0.00 | 96 | 1014.8 |
| 20260508091545 | 60 | 0 | 0.0 | 0.0 | 0.00 | 1.34 | 0.00 | 96 | 1014.8 |
| 20260508090049 | 60 | 0 | 0.0 | 0.0 | 0.00 | 1.34 | 0.00 | 96 | 1015.1 |
| 20260508084547 | 60 | 0 | 0.0 | 0.0 | 0.00 | 1.85 | 0.00 | 96 | 1015.4 |
| 20260508083051 | 60 | 0 | 0.0 | 0.0 | 0.00 | 1.85 | 0.00 | 96 | 1015.2 |
| 20260508081608 | 60 | 0 | 0.0 | 0.0 | 0.00 | 1.85 | 0.00 | 96 | 1015.1 |
| 20260508080047 | 60 | 0 | 0.0 | 0.0 | 0.00 | 1.85 | 0.00 | 95 | 1014.9 |
| 20260508074545 | 60 | 0 | 0.0 | 0.0 | 0.00 | 2.41 | 0.00 | 95 | 1014.9 |
| 20260508073044 | 60 | 0 | 0.0 | 0.0 | 0.00 | 2.41 | 0.00 | 95 | 1015.0 |
| 20260508071541 | 60 | 0 | 0.0 | 0.0 | 0.00 | 2.41 | 0.00 | 95 | 1015.1 |
| 20260508070057 | 60 | 0 | 0.0 | 0.0 | 0.00 | 2.41 | 0.00 | 95 | 1014.5 |
| 20260508064543 | 60 | 0 | 0.0 | 0.0 | 0.00 | 2.96 | 0.00 | 94 | 1015.1 |
| 20260508063047 | 61 | 0 | 0.0 | 0.0 | 0.00 | 2.96 | 0.00 | 94 | 1015.2 |
| 20260508061545 | 61 | 0 | 0.0 | 0.0 | 0.00 | 2.96 | 0.00 | 94 | 1015.1 |
| 20260508060046 | 61 | 0 | 0.0 | 0.0 | 0.00 | 2.96 | 0.00 | 94 | 1015.1 |
| 20260508054546 | 61 | 0 | 0.0 | 0.0 | 0.00 | 2.97 | 0.00 | 94 | 1015.3 |
| 20260508053046 | 61 | 0 | 0.0 | 0.0 | 0.00 | 2.97 | 0.00 | 94 | 1015.4 |
| 20260508051541 | 61 | 0 | 0.0 | 0.0 | 0.00 | 2.97 | 0.00 | 94 | 1015.4 |
| 20260508050047 | 62 | 0 | 0.0 | 0.0 | 0.00 | 2.97 | 0.00 | 95 | 1015.5 |
| 20260508044600 | 61 | 0 | 0.0 | 0.0 | 0.00 | 2.97 | 2.97 | 94 | 1015.9 |
| 20260508043047 | 62 | 0 | 0.0 | 0.0 | 0.00 | 2.97 | 2.97 | 94 | 1015.8 |
| 20260508041543 | 62 | 0 | 0.0 | 0.0 | 0.00 | 2.97 | 2.97 | 93 | 1016.0 |
| 20260508040044 | 62 | 0 | 0.0 | 0.0 | 0.00 | 2.97 | 2.97 | 93 | 1016.1 |
| 20260508034553 | 62 | 0 | 0.0 | 0.0 | 0.00 | 2.97 | 2.97 | 93 | 1016.2 |
| 20260508033047 | 62 | 0 | 0.0 | 0.0 | 0.00 | 2.97 | 2.97 | 93 | 1016.4 |
| 20260508031544 | 62 | 0 | 0.0 | 0.0 | 0.00 | 2.97 | 2.97 | 93 | 1016.2 |
| 20260508030051 | 63 | 0 | 0.0 | 0.0 | 0.00 | 2.97 | 2.97 | 92 | 1016.0 |
| 20260508024546 | 63 | 0 | 0.0 | 0.0 | 0.00 | 3.32 | 2.97 | 92 | 1016.0 |
| 20260508023041 | 63 | 0 | 0.0 | 0.0 | 0.00 | 3.32 | 2.97 | 91 | 1016.0 |
| 20260508021545 | 63 | 0 | 0.0 | 0.0 | 0.00 | 3.32 | 2.97 | 90 | 1016.0 |
| 20260508020048 | 64 | 0 | 0.0 | 0.0 | 0.00 | 3.32 | 2.97 | 90 | 1015.6 |
| 20260508014547 | 64 | 0 | 0.0 | 0.0 | 0.00 | 3.90 | 2.97 | 89 | 1015.7 |
| 20260508013051 | 64 | 0 | 0.0 | 0.0 | 0.00 | 3.90 | 2.97 | 89 | 1015.2 |
| 20260508011546 | 64 | 0 | 0.0 | 0.0 | 0.00 | 3.90 | 2.97 | 89 | 1015.3 |
| 20260508010046 | 65 | 0 | 0.0 | 0.0 | 0.00 | 3.90 | 2.97 | 88 | 1015.2 |
| 20260508004551 | 65 | 0 | 0.0 | 0.0 | 0.00 | 3.90 | 2.97 | 87 | 1015.0 |
| 20260508003047 | 66 | 0 | 0.0 | 0.0 | 0.00 | 3.90 | 2.97 | 87 | 1015.1 |
| 20260508001544 | 66 | 0 | 0.0 | 0.0 | 0.00 | 3.90 | 2.97 | 86 | 1015.0 |
| 20260508000044 | 67 | 0 | 0.0 | 0.0 | 0.00 | 3.90 | 2.97 | 85 | 1014.8 |
| 20260507234547 | 67 | 0 | 0.0 | 0.0 | 0.00 | 3.90 | 2.97 | 84 | 1014.9 |
| 20260507233046 | 68 | 0 | 0.0 | 0.0 | 0.00 | 3.90 | 2.97 | 83 | 1014.9 |
| 20260507231550 | 68 | 0 | 0.0 | 0.0 | 0.00 | 3.90 | 2.97 | 82 | 1015.1 |
| 20260507230052 | 69 | 0 | 0.0 | 0.0 | 0.00 | 3.90 | 2.97 | 81 | 1015.0 |
| 20260507224546 | 69 | 0 | 0.0 | 0.0 | 0.00 | 3.90 | 2.97 | 81 | 1015.0 |
| 20260507223043 | 70 | 0 | 0.0 | 0.0 | 0.00 | 3.90 | 2.97 | 80 | 1014.6 |
| 20260507221542 | 70 | 0 | 0.0 | 0.0 | 0.00 | 3.90 | 2.97 | 80 | 1014.5 |
| 20260507220046 | 71 | 0 | 0.0 | 0.0 | 0.00 | 3.90 | 2.97 | 80 | 1014.2 |
| 20260507214544 | 72 | 0 | 0.0 | 0.0 | 0.00 | 3.90 | 2.97 | 77 | 1014.1 |
| 20260507213043 | 72 | 0 | 0.0 | 0.0 | 0.00 | 3.90 | 2.97 | 77 | 1014.3 |
| 20260507211546 | 73 | 0 | 0.0 | 0.0 | 0.00 | 3.90 | 2.97 | 77 | 1014.3 |
| 20260507210044 | 74 | 0 | 0.0 | 0.0 | 0.00 | 3.90 | 2.97 | 77 | 1014.2 |
| 20260507204546 | 74 | 0 | 0.0 | 0.0 | 0.00 | 3.90 | 2.97 | 76 | 1014.2 |
| 20260507203051 | 75 | 0 | 0.0 | 0.0 | 0.00 | 3.90 | 2.97 | 75 | 1014.1 |
| 20260507201544 | 75 | 0 | 0.0 | 0.0 | 0.00 | 3.90 | 2.97 | 75 | 1014.2 |
| 20260507200050 | 76 | 0 | 0.0 | 0.0 | 0.00 | 3.90 | 2.97 | 72 | 1014.1 |
| 20260507194543 | 75 | 0 | 0.0 | 0.0 | 0.00 | 3.90 | 2.97 | 75 | 1014.1 |
| 20260507193045 | 74 | 0 | 0.0 | 0.0 | 0.00 | 3.90 | 2.97 | 74 | 1014.1 |
| 20260507191545 | 74 | 0 | 0.0 | 0.0 | 0.00 | 3.90 | 2.97 | 76 | 1014.3 |
| 20260507190045 | 74 | 0 | 0.0 | 0.0 | 0.00 | 3.90 | 2.97 | 77 | 1014.4 |
| 20260507184544 | 74 | 0 | 0.0 | 0.0 | 0.00 | 3.90 | 2.97 | 77 | 1014.5 |
| 20260507183045 | 73 | 0 | 0.0 | 0.0 | 0.00 | 3.90 | 2.97 | 79 | 1014.6 |
| 20260507181543 | 73 | 0 | 0.0 | 0.0 | 0.00 | 3.90 | 2.97 | 80 | 1014.5 |
| 20260507180044 | 73 | 0 | 0.0 | 0.0 | 0.00 | 3.90 | 2.97 | 80 | 1014.7 |
| 20260507174551 | 73 | 0 | 0.0 | 0.0 | 0.00 | 3.90 | 2.97 | 79 | 1014.7 |
| 20260507173051 | 71 | 0 | 0.0 | 0.0 | 0.00 | 3.90 | 2.97 | 82 | 1014.9 |
| 20260507171605 | 71 | 0 | 0.0 | 0.0 | 0.00 | 3.90 | 2.97 | 83 | 1015.1 |
| 20260507170047 | 69 | 0 | 0.0 | 0.0 | 0.00 | 3.90 | 2.97 | 83 | 1015.3 |
| 20260507164602 | 69 | 0 | 0.0 | 0.0 | 0.00 | 3.90 | 2.97 | 85 | 1015.7 |
| 20260507163045 | 69 | 0 | 0.0 | 0.0 | 0.00 | 3.90 | 2.97 | 84 | 1015.8 |
| 20260507161547 | 68 | 0 | 0.0 | 0.0 | 0.00 | 3.90 | 2.97 | 88 | 1015.6 |
| 20260507160045 | 66 | 0 | 0.0 | 0.0 | 0.00 | 3.90 | 2.97 | 89 | 1015.6 |
| 20260507154547 | 65 | 0 | 0.0 | 0.0 | 0.00 | 3.90 | 2.97 | 92 | 1015.7 |
| 20260507153047 | 64 | 0 | 0.0 | 0.0 | 0.00 | 3.90 | 2.97 | 94 | 1015.7 |
| 20260507151544 | 64 | 0 | 0.0 | 0.0 | 0.00 | 3.90 | 2.97 | 95 | 1015.9 |
| 20260507150047 | 64 | 0 | 0.0 | 0.0 | 0.00 | 3.90 | 2.97 | 96 | 1015.7 |
| 20260507144546 | 64 | 0 | 0.0 | 0.0 | 0.00 | 3.90 | 2.97 | 97 | 1015.5 |
| 20260507143052 | 63 | 0 | 0.0 | 0.0 | 0.00 | 3.90 | 2.97 | 96 | 1014.8 |
| 20260507141551 | 64 | 0 | 0.0 | 0.0 | 0.00 | 3.90 | 2.97 | 96 | 1014.7 |
| 20260507140044 | 65 | 0 | 0.0 | 0.0 | 0.00 | 3.90 | 2.97 | 96 | 1014.3 |
| 20260507134552 | 66 | 0 | 0.0 | 0.0 | 0.00 | 3.90 | 2.97 | 96 | 1014.5 |
| 20260507133047 | 66 | 0 | 0.0 | 0.0 | 0.00 | 3.90 | 2.97 | 96 | 1014.4 |
| 20260507131547 | 67 | 0 | 0.0 | 0.0 | 0.00 | 3.90 | 2.97 | 96 | 1014.3 |
| 20260507130045 | 68 | 0 | 0.0 | 0.0 | 0.00 | 3.90 | 2.97 | 96 | 1014.0 |
| 20260507124550 | 68 | 0 | 0.0 | 0.0 | 0.01 | 3.90 | 2.97 | 96 | 1013.7 |
| 20260507123045 | 69 | 0 | 0.0 | 0.0 | 0.01 | 3.90 | 2.97 | 96 | 1013.3 |
| 20260507121543 | 70 | 0 | 0.0 | 0.0 | 0.02 | 3.90 | 2.97 | 96 | 1013.0 |
| 20260507120042 | 71 | 0 | 0.0 | 0.0 | 0.01 | 3.89 | 2.96 | 97 | 1012.6 |
| 20260507114545 | 71 | 0 | 0.0 | 0.0 | 0.01 | 3.89 | 2.96 | 97 | 1012.2 |
| 20260507113045 | 71 | 0 | 0.0 | 0.0 | 0.01 | 3.89 | 2.96 | 97 | 1011.7 |
| 20260507111544 | 71 | 0 | 0.0 | 0.0 | 0.00 | 3.88 | 2.95 | 97 | 1011.2 |
| 20260507110100 | 71 | 0 | 0.0 | 0.0 | 0.07 | 3.88 | 2.95 | 97 | 1010.8 |
| 20260507104547 | 71 | 0 | 0.0 | 0.0 | 0.35 | 3.88 | 2.95 | 97 | 1010.9 |
| 20260507103050 | 71 | 0 | 0.0 | 0.0 | 0.63 | 3.88 | 2.95 | 97 | 1011.0 |
| 20260507101549 | 71 | 0 | 0.0 | 0.0 | 1.05 | 3.88 | 2.95 | 97 | 1011.2 |
| 20260507100047 | 71 | 0 | 0.0 | 0.0 | 1.23 | 3.81 | 2.88 | 97 | 1011.1 |